Time,TemperatureF,DewpointF,PressureIn,WindDirection,WindDirectionDegrees,WindSpeedMPH,WindSpeedGustMPH,Humidity,HourlyPrecipIn,Conditions,Clouds,dailyrainin,SoftwareType,DateUTC
2013-07-21 00:01:00,68.0,67.0,30.08,East,82,0.0,0.0,95,0.00,,,0.22,,2013-07-21 04:01:00,
2013-07-21 00:11:00,67.0,66.0,30.07,East,82,0.0,0.0,95,0.00,,,0.22,,2013-07-21 04:11:00,
2013-07-21 00:22:00,67.0,66.0,30.07,East,82,0.0,0.0,95,0.00,,,0.22,,2013-07-21 04:22:00,
2013-07-21 00:32:00,67.0,66.0,30.07,East,82,0.0,0.0,95,0.00,,,0.22,,2013-07-21 04:32:00,
2013-07-21 00:43:00,67.0,66.0,30.07,East,82,0.0,0.0,95,0.00,,,0.22,,2013-07-21 04:43:00,
2013-07-21 00:53:00,67.0,66.0,30.07,East,82,0.0,0.0,95,0.00,,,0.22,,2013-07-21 04:53:00,
2013-07-21 01:02:00,66.0,65.0,30.07,East,82,0.0,0.0,95,0.00,,,0.22,,2013-07-21 05:02:00,
2013-07-21 01:11:00,66.0,64.0,30.06,East,82,0.0,1.0,94,0.00,,,0.22,,2013-07-21 05:11:00,
2013-07-21 01:22:00,66.0,65.0,30.06,East,82,0.0,1.0,95,0.00,,,0.22,,2013-07-21 05:22:00,
2013-07-21 01:32:00,66.0,64.0,30.06,East,82,0.0,0.0,94,0.00,,,0.22,,2013-07-21 05:32:00,
2013-07-21 01:42:00,66.0,64.0,30.06,East,82,0.0,0.0,94,0.00,,,0.22,,2013-07-21 05:42:00,
2013-07-21 01:52:00,66.0,65.0,30.06,East,82,0.0,0.0,95,0.00,,,0.22,,2013-07-21 05:52:00,
2013-07-21 02:01:00,65.0,63.0,30.06,East,82,0.0,2.0,94,0.00,,,0.22,,2013-07-21 06:01:00,
2013-07-21 02:11:00,65.0,63.0,30.06,East,82,0.0,0.0,94,0.00,,,0.22,,2013-07-21 06:11:00,
2013-07-21 02:22:00,65.0,63.0,30.06,East,82,0.0,0.0,94,0.00,,,0.22,,2013-07-21 06:22:00,
2013-07-21 02:32:00,65.0,63.0,30.05,East,82,0.0,0.0,94,0.00,,,0.22,,2013-07-21 06:32:00,
2013-07-21 02:52:00,65.0,64.0,30.05,East,82,0.0,0.0,95,0.00,,,0.22,,2013-07-21 06:52:00,
2013-07-21 03:01:00,65.0,64.0,30.05,East,82,0.0,0.0,95,0.00,,,0.22,,2013-07-21 07:01:00,
2013-07-21 03:11:00,64.0,63.0,30.05,East,82,0.0,0.0,95,0.00,,,0.22,,2013-07-21 07:11:00,
2013-07-21 03:22:00,64.0,63.0,30.04,East,82,0.0,0.0,96,0.00,,,0.22,,2013-07-21 07:22:00,
2013-07-21 03:32:00,64.0,63.0,30.04,East,82,0.0,0.0,95,0.00,,,0.22,,2013-07-21 07:32:00,
2013-07-21 03:43:00,64.0,63.0,30.04,East,82,0.0,1.0,95,0.00,,,0.22,,2013-07-21 07:43:00,
2013-07-21 03:52:00,64.0,63.0,30.04,East,82,0.0,0.0,96,0.00,,,0.22,,2013-07-21 07:52:00,
2013-07-21 04:01:00,64.0,63.0,30.04,East,82,0.0,1.0,95,0.00,,,0.22,,2013-07-21 08:01:00,
2013-07-21 04:11:00,64.0,63.0,30.03,East,82,0.0,0.0,95,0.00,,,0.22,,2013-07-21 08:11:00,
2013-07-21 04:22:00,64.0,63.0,30.03,East,82,0.0,0.0,95,0.00,,,0.22,,2013-07-21 08:22:00,
2013-07-21 04:33:00,64.0,63.0,30.04,East,82,0.0,0.0,96,0.00,,,0.21,,2013-07-21 08:33:00,
2013-07-21 04:43:00,64.0,63.0,30.04,East,82,0.0,0.0,96,0.00,,,0.21,,2013-07-21 08:43:00,
2013-07-21 04:52:00,64.0,63.0,30.03,East,82,0.0,0.0,96,0.00,,,0.21,,2013-07-21 08:52:00,
2013-07-21 05:02:00,63.0,62.0,30.03,East,82,0.0,0.0,96,0.00,,,0.21,,2013-07-21 09:02:00,
2013-07-21 05:12:00,63.0,62.0,30.03,East,82,0.0,0.0,96,0.00,,,0.21,,2013-07-21 09:12:00,
2013-07-21 05:22:00,63.0,62.0,30.03,East,82,0.0,0.0,96,0.00,,,0.21,,2013-07-21 09:22:00,
2013-07-21 05:32:00,63.0,62.0,30.03,East,82,0.0,0.0,96,0.00,,,0.21,,2013-07-21 09:32:00,
2013-07-21 05:42:00,63.0,62.0,30.03,East,82,0.0,0.0,96,0.00,,,0.21,,2013-07-21 09:42:00,
2013-07-21 05:52:00,63.0,62.0,30.03,East,82,0.0,0.0,96,0.00,,,0.21,,2013-07-21 09:52:00,
2013-07-21 06:02:00,63.0,62.0,30.03,East,82,0.0,0.0,96,0.00,,,0.21,,2013-07-21 10:02:00,
2013-07-21 06:11:00,63.0,62.0,30.03,East,82,0.0,0.0,96,0.00,,,0.21,,2013-07-21 10:11:00,
2013-07-21 06:22:00,63.0,62.0,30.03,East,82,0.0,1.0,96,0.00,,,0.21,,2013-07-21 10:22:00,
2013-07-21 06:32:00,63.0,62.0,30.03,East,82,0.0,1.0,97,0.00,,,0.21,,2013-07-21 10:32:00,
2013-07-21 06:43:00,63.0,62.0,30.04,East,82,0.0,0.0,97,0.00,,,0.21,,2013-07-21 10:43:00,
2013-07-21 06:52:00,63.0,62.0,30.04,East,82,0.0,0.0,97,0.00,,,0.21,,2013-07-21 10:52:00,
2013-07-21 07:02:00,63.0,62.0,30.04,East,82,0.0,0.0,97,0.00,,,0.21,,2013-07-21 11:02:00,
2013-07-21 07:12:00,63.0,62.0,30.04,East,82,0.0,0.0,97,0.00,,,0.21,,2013-07-21 11:12:00,
2013-07-21 07:22:00,63.0,62.0,30.05,East,82,0.0,0.0,97,0.00,,,0.21,,2013-07-21 11:22:00,
2013-07-21 07:33:00,63.0,62.0,30.05,East,82,0.0,1.0,97,0.00,,,0.21,,2013-07-21 11:33:00,
2013-07-21 07:43:00,63.0,62.0,30.05,East,82,0.0,0.0,97,0.00,,,0.21,,2013-07-21 11:43:00,
2013-07-21 07:52:00,64.0,63.0,30.06,East,82,0.0,0.0,97,0.00,,,0.21,,2013-07-21 11:52:00,
2013-07-21 08:01:00,64.0,63.0,30.06,East,82,0.0,0.0,97,0.00,,,0.21,,2013-07-21 12:01:00,
2013-07-21 08:11:00,64.0,63.0,30.06,East,82,0.0,0.0,98,0.00,,,0.21,,2013-07-21 12:11:00,
2013-07-21 08:22:00,65.0,64.0,30.06,East,82,0.0,1.0,98,0.00,,,0.21,,2013-07-21 12:22:00,
2013-07-21 08:32:00,66.0,65.0,30.07,West,259,0.0,3.0,98,0.00,,,0.21,,2013-07-21 12:32:00,
2013-07-21 08:43:00,66.0,66.0,30.06,West,259,0.0,2.0,99,0.00,,,0.21,,2013-07-21 12:43:00,
2013-07-21 08:53:00,67.0,67.0,30.07,West,259,0.0,1.0,99,0.00,,,0.21,,2013-07-21 12:53:00,
2013-07-21 09:02:00,67.0,67.0,30.07,West,259,0.0,2.0,99,0.00,,,0.21,,2013-07-21 13:02:00,
2013-07-21 09:12:00,68.0,68.0,30.08,West,259,0.0,2.0,99,0.00,,,0.21,,2013-07-21 13:12:00,
2013-07-21 09:22:00,68.0,68.0,30.08,West,259,0.0,2.0,99,0.00,,,0.21,,2013-07-21 13:22:00,
2013-07-21 09:32:00,68.0,68.0,30.08,West,260,0.0,2.0,99,0.00,,,0.21,,2013-07-21 13:32:00,
2013-07-21 09:43:00,68.0,68.0,30.08,West,260,0.0,3.0,99,0.00,,,0.21,,2013-07-21 13:43:00,
2013-07-21 09:52:00,68.0,68.0,30.08,West,260,0.0,1.0,99,0.00,,,0.21,,2013-07-21 13:52:00,
2013-07-21 10:01:00,69.0,69.0,30.08,West,260,0.0,1.0,99,0.00,,,0.21,,2013-07-21 14:01:00,
2013-07-21 10:12:00,69.0,69.0,30.08,West,260,0.0,1.0,99,0.00,,,0.21,,2013-07-21 14:12:00,
2013-07-21 10:23:00,70.0,70.0,30.08,West,260,0.0,0.0,99,0.00,,,0.21,,2013-07-21 14:23:00,
2013-07-21 10:32:00,70.0,70.0,30.08,West,260,0.0,0.0,99,0.00,,,0.21,,2013-07-21 14:32:00,
2013-07-21 10:43:00,70.0,70.0,30.08,West,260,0.0,0.0,99,0.00,,,0.21,,2013-07-21 14:43:00,
2013-07-21 10:53:00,70.0,70.0,30.08,West,260,0.0,0.0,99,0.00,,,0.21,,2013-07-21 14:53:00,
2013-07-21 11:02:00,71.0,71.0,30.08,West,260,0.0,0.0,99,0.00,,,0.21,,2013-07-21 15:02:00,
2013-07-21 11:11:00,71.0,71.0,30.08,West,260,0.0,1.0,99,0.00,,,0.21,,2013-07-21 15:11:00,
2013-07-21 11:22:00,71.0,71.0,30.09,West,260,0.0,0.0,99,0.00,,,0.21,,2013-07-21 15:22:00,
2013-07-21 11:32:00,71.0,71.0,30.08,WSW,256,0.0,2.0,99,0.00,,,0.21,,2013-07-21 15:32:00,
2013-07-21 11:43:00,72.0,72.0,30.08,WSW,256,0.0,0.0,99,0.00,,,0.21,,2013-07-21 15:43:00,
2013-07-21 11:53:00,72.0,72.0,30.08,WSW,256,0.0,1.0,99,0.00,,,0.21,,2013-07-21 15:53:00,
2013-07-21 12:01:00,72.0,72.0,30.08,WSW,256,0.0,1.0,99,0.00,,,0.21,,2013-07-21 16:01:00,
2013-07-21 12:11:00,72.0,72.0,30.08,WSW,258,0.0,1.0,99,0.00,,,0.21,,2013-07-21 16:11:00,
2013-07-21 12:22:00,73.0,72.0,30.08,WSW,257,0.0,1.0,97,0.00,,,0.21,,2013-07-21 16:22:00,
2013-07-21 12:32:00,72.0,70.0,30.08,WSW,255,0.0,1.0,93,0.00,,,0.21,,2013-07-21 16:32:00,
2013-07-21 12:43:00,73.0,70.0,30.07,North,0,0.0,4.0,90,0.00,,,0.21,,2013-07-21 16:43:00,
2013-07-21 12:52:00,74.0,72.0,30.07,North,0,0.0,1.0,94,0.00,,,0.21,,2013-07-21 16:52:00,
2013-07-21 13:02:00,74.0,70.0,30.07,SW,214,0.0,4.0,88,0.00,,,0.21,,2013-07-21 17:02:00,
2013-07-21 13:11:00,75.0,68.0,30.06,SW,215,0.0,3.0,79,0.00,,,0.21,,2013-07-21 17:11:00,
2013-07-21 13:22:00,76.0,70.0,30.06,SW,217,0.0,3.0,81,0.00,,,0.21,,2013-07-21 17:22:00,
2013-07-21 13:33:00,75.0,69.0,30.06,SW,217,0.0,0.0,83,0.00,,,0.21,,2013-07-21 17:33:00,
2013-07-21 13:43:00,75.0,70.0,30.05,ENE,74,1.0,6.0,85,0.00,,,0.21,,2013-07-21 17:43:00,
2013-07-21 13:53:00,76.0,70.0,30.05,NNE,18,0.0,6.0,83,0.00,,,0.21,,2013-07-21 17:53:00,
2013-07-21 14:01:00,77.0,70.0,30.05,North,351,0.0,4.0,80,0.00,,,0.21,,2013-07-21 18:01:00,
2013-07-21 14:11:00,77.0,71.0,30.04,ENE,69,1.0,6.0,82,0.00,,,0.21,,2013-07-21 18:11:00,
2013-07-21 14:22:00,77.0,70.0,30.04,North,8,2.0,6.0,80,0.00,,,0.21,,2013-07-21 18:22:00,
2013-07-21 14:32:00,77.0,70.0,30.04,NNE,12,3.0,9.0,78,0.00,,,0.16,,2013-07-21 18:32:00,
2013-07-21 14:43:00,77.0,69.0,30.04,ENE,71,2.0,9.0,77,0.00,,,0.16,,2013-07-21 18:43:00,
2013-07-21 14:52:00,76.0,69.0,30.03,ENE,76,3.0,7.0,78,0.00,,,0.16,,2013-07-21 18:52:00,
2013-07-21 15:01:00,76.0,69.0,30.03,ENE,71,0.0,4.0,78,0.00,,,0.16,,2013-07-21 19:01:00,
2013-07-21 15:22:00,76.0,69.0,30.03,ENE,74,1.0,7.0,79,0.00,,,0.16,,2013-07-21 19:22:00,
2013-07-21 15:32:00,75.0,68.0,30.02,East,97,2.0,7.0,80,0.00,,,0.15,,2013-07-21 19:32:00,
2013-07-21 15:42:00,74.0,68.0,30.03,ENE,64,0.0,4.0,83,0.00,,,0.15,,2013-07-21 19:42:00,
2013-07-21 15:52:00,73.0,68.0,30.04,NNW,334,1.0,6.0,83,0.00,,,0.15,,2013-07-21 19:52:00,
2013-07-21 16:02:00,73.0,68.0,30.05,West,280,0.0,3.0,85,0.00,,,0.15,,2013-07-21 20:02:00,
2013-07-21 16:12:00,72.0,67.0,30.05,North,359,0.0,4.0,84,0.00,,,0.15,,2013-07-21 20:12:00,
2013-07-21 16:22:00,72.0,68.0,30.05,North,358,0.0,2.0,86,0.00,,,0.15,,2013-07-21 20:22:00,
2013-07-21 16:32:00,72.0,67.0,30.05,North,4,0.0,3.0,85,0.00,,,0.00,,2013-07-21 20:32:00,
2013-07-21 16:43:00,73.0,68.0,30.04,North,0,1.0,4.0,85,0.00,,,0.00,,2013-07-21 20:43:00,
2013-07-21 16:52:00,74.0,67.0,30.04,NNE,17,1.0,6.0,79,0.00,,,0.00,,2013-07-21 20:52:00,
2013-07-21 17:01:00,76.0,68.0,30.03,NNE,33,1.0,5.0,77,0.00,,,0.00,,2013-07-21 21:01:00,
2013-07-21 17:11:00,77.0,69.0,30.04,NNE,19,0.0,4.0,76,0.00,,,0.00,,2013-07-21 21:11:00,
2013-07-21 17:22:00,78.0,70.0,30.04,NNE,28,0.0,3.0,77,0.00,,,0.00,,2013-07-21 21:22:00,
2013-07-21 17:32:00,78.0,70.0,30.03,East,92,0.0,1.0,77,0.00,,,0.00,,2013-07-21 21:32:00,
2013-07-21 17:52:00,79.0,69.0,30.03,SSE,155,0.0,2.0,71,0.00,,,0.00,,2013-07-21 21:52:00,
2013-07-21 18:01:00,78.0,68.0,30.02,SSE,156,0.0,1.0,72,0.00,,,0.00,,2013-07-21 22:01:00,
2013-07-21 18:11:00,76.0,68.0,30.03,SSE,155,0.0,0.0,77,0.00,,,0.00,,2013-07-21 22:11:00,
2013-07-21 18:22:00,75.0,69.0,30.02,SSE,156,0.0,0.0,81,0.00,,,0.00,,2013-07-21 22:22:00,
2013-07-21 18:32:00,74.0,68.0,30.02,SSE,156,0.0,0.0,83,0.00,,,0.00,,2013-07-21 22:32:00,
2013-07-21 18:43:00,74.0,69.0,30.02,SSE,156,0.0,0.0,84,0.00,,,0.00,,2013-07-21 22:43:00,
2013-07-21 18:52:00,73.0,68.0,30.02,SSE,156,0.0,1.0,85,0.00,,,0.00,,2013-07-21 22:52:00,
2013-07-21 19:02:00,73.0,68.0,30.03,SSE,156,0.0,1.0,85,0.01,,,0.01,,2013-07-21 23:02:00,
2013-07-21 19:11:00,72.0,67.0,30.03,SSE,155,0.0,0.0,85,0.01,,,0.01,,2013-07-21 23:11:00,
2013-07-21 19:22:00,71.0,67.0,30.03,SSE,155,0.0,0.0,86,0.02,,,0.02,,2013-07-21 23:22:00,
2013-07-21 19:32:00,71.0,67.0,30.02,SSE,155,0.0,3.0,88,0.02,,,0.02,,2013-07-21 23:32:00,
2013-07-21 19:42:00,70.0,66.0,30.02,SSE,156,0.0,0.0,88,0.02,,,0.02,,2013-07-21 23:42:00,
2013-07-21 19:52:00,70.0,67.0,30.02,SSE,155,0.0,0.0,90,0.02,,,0.02,,2013-07-21 23:52:00,
2013-07-21 20:01:00,70.0,67.0,30.03,SSE,155,0.0,0.0,90,0.01,,,0.02,,2013-07-22 00:01:00,
2013-07-21 20:11:00,69.0,66.0,30.03,SSE,155,0.0,0.0,90,0.01,,,0.02,,2013-07-22 00:11:00,
2013-07-21 20:22:00,69.0,66.0,30.03,SSE,155,0.0,0.0,90,0.00,,,0.02,,2013-07-22 00:22:00,
2013-07-21 20:32:00,69.0,66.0,30.03,SSE,155,0.0,0.0,91,0.00,,,0.02,,2013-07-22 00:32:00,
2013-07-21 20:52:00,69.0,66.0,30.03,SSE,155,0.0,0.0,91,0.00,,,0.02,,2013-07-22 00:52:00,
2013-07-21 21:02:00,69.0,66.0,30.04,SSE,155,0.0,0.0,91,0.00,,,0.02,,2013-07-22 01:02:00,
2013-07-21 21:12:00,68.0,66.0,30.04,SSE,155,0.0,0.0,92,0.00,,,0.02,,2013-07-22 01:12:00,
2013-07-21 21:22:00,68.0,66.0,30.04,SSE,155,0.0,0.0,92,0.00,,,0.02,,2013-07-22 01:22:00,
2013-07-21 21:32:00,68.0,66.0,30.04,SSE,155,0.0,0.0,92,0.00,,,0.02,,2013-07-22 01:32:00,
2013-07-21 21:42:00,68.0,66.0,30.04,SSE,156,0.0,0.0,92,0.00,,,0.02,,2013-07-22 01:42:00,
2013-07-21 21:52:00,68.0,66.0,30.05,SSE,155,0.0,0.0,92,0.00,,,0.02,,2013-07-22 01:52:00,
2013-07-21 22:02:00,68.0,66.0,30.05,SSE,155,0.0,0.0,93,0.00,,,0.02,,2013-07-22 02:02:00,
2013-07-21 22:11:00,68.0,66.0,30.06,SSE,155,0.0,0.0,93,0.00,,,0.02,,2013-07-22 02:11:00,
2013-07-21 22:22:00,68.0,66.0,30.06,SSE,155,0.0,0.0,93,0.00,,,0.02,,2013-07-22 02:22:00,
2013-07-21 22:32:00,68.0,66.0,30.06,SSE,155,0.0,0.0,93,0.00,,,0.02,,2013-07-22 02:32:00,
2013-07-21 22:43:00,68.0,66.0,30.07,SSE,155,0.0,0.0,93,0.00,,,0.02,,2013-07-22 02:43:00,
2013-07-21 22:52:00,68.0,66.0,30.07,SSE,155,0.0,0.0,93,0.00,,,0.02,,2013-07-22 02:52:00,
2013-07-21 23:01:00,68.0,66.0,30.07,SSE,155,0.0,0.0,92,0.00,,,0.02,,2013-07-22 03:01:00,
2013-07-21 23:12:00,68.0,66.0,30.07,SSE,155,0.0,0.0,93,0.00,,,0.02,,2013-07-22 03:12:00,
2013-07-21 23:22:00,68.0,66.0,30.07,SSE,156,0.0,0.0,92,0.00,,,0.02,,2013-07-22 03:22:00,
2013-07-21 23:33:00,68.0,66.0,30.07,SSE,155,0.0,1.0,92,0.00,,,0.02,,2013-07-22 03:33:00,
2013-07-21 23:43:00,68.0,66.0,30.07,SSE,155,0.0,0.0,92,0.00,,,0.02,,2013-07-22 03:43:00,
2013-07-21 23:53:00,67.0,65.0,30.08,SSE,155,0.0,0.0,92,0.00,,,0.02,,2013-07-22 03:53:00,